Flight Track Log - Related Links

Times and Time Zones

All times are in EDT time to prevent confusion due to time zone crossing. See the N207AH flight status page for this flight to view local times or setup timezone preferences in your user account.

Time Position Orientation Groundspeed Altitude Reporting Facility
EDT Latitude Longitude Course Direction KTS MPH feet Rate Location/Type
Mon 09:04:14 AM 31.2522 -90.4631 12° North 255 293 3,200  Level Houston Center
Mon 09:05:16 AM 31.3333 -90.4269 21° North 255 293 5,700 2,274 Climbing Houston Center
Mon 09:06:18 AM 31.4072 -90.3917 22° Northeast 274 315 7,900 2,129 Climbing Houston Center
Mon 09:07:20 AM 31.4825 -90.3536 23° Northeast 289 333 10,100 2,112 Climbing Houston Center
Mon 09:08:23 AM 31.5603 -90.3172 22° Northeast 295 339 12,300 2,064 Climbing Houston Center
Mon 09:09:00 AM 31.6418 -90.2312 12° North  Level FlightAware Approximate
Mon 09:09:25 AM 31.6389 -90.2786 23° Northeast 302 348 14,400  Level Houston Center
Mon 09:10:27 AM 31.7208 -90.2400 22° Northeast 312 359 16,400 2,081 Climbing Houston Center
Mon 09:11:29 AM 31.8208 -90.1906 23° Northeast 324 373 18,700 1,839 Climbing Houston Center
Mon 09:12:31 AM 31.9064 -90.1508 22° Northeast 324 373 20,200 1,500 Climbing Houston Center
Mon 09:13:33 AM 31.9942 -90.1081 22° Northeast 336 387 21,800 1,355 Climbing Houston Center
Mon 09:14:35 AM 32.0828 -90.0644 23° Northeast 343 395 23,000 726 Climbing Houston Center
Mon 09:15:37 AM 32.1797 -90.0172 22° Northeast 371 427 23,300 912 Climbing Houston Center
Mon 09:16:40 AM 32.2764 -89.9703 22° Northeast 377 434 24,900 1,440 Climbing Houston Center
Mon 09:17:42 AM 32.3794 -89.9200 22° Northeast 369 425 26,300 1,258 Climbing Houston Center
Mon 09:18:44 AM 32.4753 -89.8733 22° Northeast 370 426 27,500 1,065 Climbing Houston Center
Mon 09:19:46 AM 32.5708 -89.8269 22° Northeast 370 426 28,500 1,065 Climbing Houston Center
Mon 09:20:48 AM 32.6861 -89.7706 22° Northeast 371 427 29,700 1,258 Climbing Houston Center
Mon 09:21:50 AM 32.7811 -89.7219 23° Northeast 371 427 31,100 1,296 Climbing Houston Center
Mon 09:22:53 AM 32.8819 -89.6753 21° North 366 421 32,400 1,385 Climbing Houston Center
Mon 09:24:13 AM 32.9928 -89.6156 24° Northeast 355 409 34,400 1,099 Climbing Memphis Center
Mon 09:25:15 AM 33.0839 -89.5717 22° Northeast 355 409 35,000 290 Climbing Memphis Center
Mon 09:26:17 AM 33.1997 -89.5144 22° Northeast 376 433 35,000  Level Memphis Center
Mon 09:27:20 AM 33.2911 -89.4269 39° Northeast 418 481 35,000 480 Level Memphis Center
Mon 09:28:22 AM 33.3819 -89.3389 39° Northeast 422 486 36,000 968 Climbing Memphis Center
Mon 09:29:24 AM 33.4733 -89.2556 37° Northeast 421 484 37,000 968 Climbing Memphis Center
Mon 09:30:26 AM 33.5625 -89.1733 38° Northeast 412 474 38,000 919 Climbing Memphis Center
Mon 09:31:28 AM 33.6664 -89.0764 38° Northeast 402 463 38,900 823 Climbing Memphis Center
Mon 09:32:30 AM 33.7533 -88.9958 38° Northeast 401 461 39,700 774 Climbing Memphis Center
Mon 09:33:32 AM 33.8547 -88.9425 24° Northeast 390 449 40,500 629 Climbing Memphis Center
Mon 09:34:34 AM 33.9544 -88.8947 22° Northeast 388 447 41,000 240 Climbing Memphis Center
Mon 09:35:37 AM 34.0564 -88.8461 22° Northeast 390 449 41,000  Level Memphis Center
Mon 09:36:39 AM 34.1681 -88.7919 22° Northeast 401 461 41,000  Level Memphis Center
Mon 09:37:41 AM 34.2786 -88.7400 21° North 417 480 41,000  Level Memphis Center
Mon 09:38:43 AM 34.3900 -88.6856 22° Northeast 425 489 41,000  Level Memphis Center
Mon 09:39:45 AM 34.5272 -88.6203 21° North 433 498 41,000  Level Memphis Center
Mon 09:40:47 AM 34.6314 -88.5697 22° Northeast 439 505 41,000  Level Memphis Center
Mon 09:41:49 AM 34.7472 -88.5133 22° Northeast 444 511 41,000  Level Memphis Center
Mon 09:42:51 AM 34.8772 -88.4511 21° North 447 514 41,000  Level Memphis Center
Mon 09:43:54 AM 34.9936 -88.3925 22° Northeast 448 516 41,000  Level Memphis Center
Mon 09:44:56 AM 35.1094 -88.3361 22° Northeast 448 516 41,000  Level Memphis Center
Mon 09:45:58 AM 35.2258 -88.2783 22° Northeast 448 516 41,000  Level Memphis Center
Mon 09:47:00 AM 35.3656 -88.2100 22° Northeast 448 516 41,000  Level Memphis Center
Mon 09:48:02 AM 35.4822 -88.1514 22° Northeast 449 517 41,000  Level Memphis Center
Mon 09:49:04 AM 35.5919 -88.0986 21° North 449 517 41,000  Level Memphis Center
Mon 09:50:06 AM 35.7283 -88.0297 22° Northeast 449 517 41,000  Level Memphis Center
Mon 09:51:08 AM 35.8456 -87.9700 22° Northeast 449 517 41,000  Level Memphis Center
Mon 09:52:10 AM 35.9633 -87.9119 22° Northeast 449 517 41,000  Level Memphis Center
Mon 09:53:13 AM 36.0811 -87.8514 23° Northeast 450 518 41,000  Level Memphis Center
Mon 09:54:15 AM 36.2006 -87.7922 22° Northeast 450 518 41,000  Level Memphis Center
Mon 09:55:17 AM 36.3194 -87.7328 22° Northeast 452 520 41,000  Level Memphis Center
Mon 09:56:19 AM 36.4386 -87.6722 22° Northeast 452 520 41,000  Level Memphis Center
Mon 09:57:21 AM 36.5586 -87.6108 22° Northeast 453 521 41,000  Level Memphis Center
Mon 09:58:23 AM 36.6775 -87.5500 22° Northeast 454 522 41,000  Level Memphis Center
Mon 09:59:25 AM 36.8156 -87.4786 22° Northeast 454 522 41,000  Level Memphis Center
Mon 10:00:27 AM 36.9342 -87.4172 22° Northeast 454 522 41,000  Level Memphis Center
Mon 10:01:29 AM 37.0531 -87.3561 22° Northeast 454 522 41,000  Level Memphis Center
Mon 10:02:31 AM 37.1775 -87.3242 12° North 453 521 41,000  Level Memphis Center
Mon 10:03:33 AM 37.2994 -87.2894 13° North 447 514 41,000  Level Memphis Center
Mon 10:04:35 AM 37.4233 -87.2606 10° North 447 514 41,000  Level Memphis Center
Mon 10:05:09 AM 37.5053 -87.2431 10° North 449 517 41,000  Level Indianapolis Center
Mon 10:06:11 AM 37.6236 -87.1978 17° North 453 521 41,000  Level Indianapolis Center
Mon 10:08:15 AM 37.8597 -87.0633 24° Northeast 462 532 41,000 -226 Level Indianapolis Center
Mon 10:09:17 AM 37.9783 -86.9956 24° Northeast 464 534 40,300 -912 Descending Indianapolis Center
Mon 10:10:20 AM 38.1256 -86.9086 25° Northeast 487 560 39,100 -1,056 Descending Indianapolis Center
Mon 10:11:22 AM 38.2497 -86.8358 25° Northeast 494 568 38,100 -968 Descending Indianapolis Center
Mon 10:12:24 AM 38.3761 -86.7639 24° Northeast 500 575 37,100 -919 Descending Indianapolis Center
Mon 10:13:26 AM 38.5028 -86.6925 24° Northeast 501 577 36,200 -1,065 Descending Indianapolis Center
Mon 10:14:28 AM 38.6317 -86.6172 25° Northeast 504 580 34,900 -1,500 Descending Indianapolis Center
Mon 10:15:30 AM 38.7836 -86.5300 24° Northeast 503 579 33,100 -1,597 Descending Indianapolis Center
Mon 10:16:32 AM 38.9086 -86.4564 25° Northeast 499 574 31,600 -1,452 Descending Indianapolis Center
Mon 10:17:34 AM 39.0331 -86.3842 24° Northeast 496 571 30,100 -1,452 Descending Indianapolis Center
Mon 10:18:36 AM 39.1617 -86.3086 24° Northeast 500 575 28,600 -1,500 Descending Indianapolis Center
Mon 10:19:38 AM 39.2869 -86.2331 25° Northeast 503 579 27,000 -1,548 Descending Indianapolis Center
Mon 10:20:40 AM 39.4083 -86.1608 25° Northeast 489 563 25,400 -1,452 Descending Indianapolis Center
Mon 10:21:42 AM 39.5528 -86.0736 25° Northeast 486 559 24,000 -677 Descending Indianapolis Center
Mon 10:22:44 AM 39.6683 -86.0036 25° Northeast 471 542 24,000  Level Indianapolis Center
Mon 10:23:46 AM 39.7831 -85.9342 25° Northeast 468 539 24,000 -435 Level Indianapolis Center
Mon 10:24:48 AM 39.8983 -85.8644 25° Northeast 464 534 23,100 -968 Descending Indianapolis Center
Mon 10:25:50 AM 40.0381 -85.7794 25° Northeast 465 535 22,000 -629 Descending Indianapolis Center
Mon 10:26:52 AM 40.1503 -85.7119 25° Northeast 452 520 21,800 -1,463 Descending Indianapolis Center
Mon 10:27:53 AM 40.2614 -85.6419 26° Northeast 449 517 19,000 -2,927 Descending Indianapolis Center
Mon 10:28:55 AM 40.3667 -85.5792 24° Northeast 428 493 15,800 -3,333 Descending Indianapolis Center
Mon 10:29:50 AM 40.4681 -85.5142 26° Northeast 414 476 12,500 -2,462 Descending Chicago Center
Mon 10:30:52 AM 40.5528 -85.4611 25° Northeast 337 388 11,000 -726 Descending Chicago Center
Mon 10:31:54 AM 40.6217 -85.4175 26° Northeast 285 328 11,000 -192 Level Chicago Center
Mon 10:32:57 AM 40.6953 -85.3717 25° Northeast 275 316 10,600 -816 Descending Chicago Center
Mon 10:33:59 AM 40.7558 -85.3056 40° Northeast 301 346 9,300 -1,403 Descending Chicago Center
Mon 10:35:01 AM 40.7067 -85.2414 135° Southeast 297 342 7,700 -1,597 Descending Chicago Center
Mon 10:36:03 AM 40.6897 -85.3192 254° West 269 310 6,000 -1,403 Descending Chicago Center
Mon 10:37:05 AM 40.7422 -85.3803 319° Northwest 260 299 4,800 -1,452 Descending Chicago Center
Mon 10:38:07 AM 40.8081 -85.4100 341° North 242 278 3,000 -871 Descending Chicago Center
Mon 10:39:09 AM 40.8469 -85.3561 46° Northeast 218 251 3,000 -96 Level Chicago Center
Mon 10:40:12 AM 40.8889 -85.3044 43° Northeast 210 242 2,800 -576 Descending Chicago Center
Mon 10:41:14 AM 40.9256 -85.2561 45° Northeast 200 230 1,800 -677 Descending Chicago Center
Mon 10:42:16 AM 40.9625 -85.2069 45° Northeast 184 212 1,400 -387 Descending Chicago Center

Login

Don't have an account? Register now (free) for customized features, flight alerts, and more!